| time (UTC) | temp F | wind direction | speed MPH | gust MPH | rain 1hr in | rain 24hr in | rain mn in | humidity % | barometer mb |
| 20260906005003 | 68 | 165 | 1.0 | 2.0 | 0.00 | 0.00 | 0.00 | 60 | 1017.2 |
| 20260906004457 | 68 | 64 | 0.0 | 1.0 | 0.00 | 0.00 | 0.00 | 60 | 1017.3 |
| 20260906003952 | 66 | 358 | 1.0 | 3.0 | 0.00 | 0.00 | 0.00 | 64 | 1017.2 |
| 20260906003447 | 64 | 37 | 1.0 | 1.0 | 0.00 | 0.00 | 0.00 | 67 | 1017.1 |
| 20260906002943 | 63 | 37 | 0.0 | 1.0 | 0.00 | 0.00 | 0.00 | 68 | 1017.2 |
| 20260906002443 | 63 | 32 | 0.0 | 1.0 | 0.00 | 0.00 | 0.00 | 68 | 1017.2 |
| 20260906001937 | 64 | 129 | 0.0 | 1.0 | 0.00 | 0.00 | 0.00 | 67 | 1017.1 |
| 20260906001433 | 65 | 66 | 0.0 | 0.0 | 0.00 | 0.00 | 0.00 | 66 | 1017.2 |
| 20260906000928 | 66 | 41 | 1.0 | 2.0 | 0.00 | 0.00 | 0.00 | 64 | 1016.9 |
| 20260906000425 | 67 | 139 | 1.0 | 1.0 | 0.00 | 0.00 | 0.00 | 62 | 1017.2 |
| 20260905235918 | 68 | 322 | 2.0 | 3.0 | 0.00 | 0.00 | 0.00 | 59 | 1016.9 |
| 20260905235412 | 69 | 157 | 2.0 | 4.0 | 0.00 | 0.00 | 0.00 | 58 | 1017.0 |
| 20260905234908 | 68 | 183 | 1.0 | 4.0 | 0.00 | 0.00 | 0.00 | 60 | 1017.0 |
| 20260905234403 | 70 | 135 | 2.0 | 3.0 | 0.00 | 0.00 | 0.00 | 57 | 1017.0 |
| 20260905233858 | 69 | 143 | 2.0 | 2.0 | 0.00 | 0.00 | 0.00 | 58 | 1017.1 |
| 20260905233353 | 69 | 88 | 0.0 | 3.0 | 0.00 | 0.00 | 0.00 | 59 | 1017.1 |
| 20260905232852 | 69 | 138 | 0.0 | 3.0 | 0.00 | 0.00 | 0.00 | 59 | 1017.1 |
| 20260905232349 | 69 | 122 | 2.0 | 4.0 | 0.00 | 0.00 | 0.00 | 58 | 1017.1 |
| 20260905231844 | 70 | 178 | 0.0 | 2.0 | 0.00 | 0.00 | 0.00 | 58 | 1017.1 |
| 20260905231338 | 69 | 120 | 1.0 | 4.0 | 0.00 | 0.00 | 0.00 | 60 | 1016.9 |
| 20260905230830 | 69 | 118 | 2.0 | 4.0 | 0.00 | 0.00 | 0.00 | 60 | 1017.2 |
| 20260905230327 | 69 | 183 | 2.0 | 3.0 | 0.00 | 0.00 | 0.00 | 60 | 1017.1 |
| 20260905225827 | 69 | 111 | 2.0 | 5.0 | 0.00 | 0.00 | 0.00 | 62 | 1017.1 |
| 20260905225321 | 68 | 121 | 2.0 | 3.0 | 0.00 | 0.00 | 0.00 | 62 | 1017.0 |
| 20260905224816 | 68 | 141 | 2.0 | 5.0 | 0.00 | 0.00 | 0.00 | 62 | 1017.1 |
| 20260905224312 | 69 | 81 | 0.0 | 3.0 | 0.00 | 0.00 | 0.00 | 60 | 1017.1 |
| 20260905223807 | 69 | 138 | 2.0 | 2.0 | 0.00 | 0.00 | 0.00 | 62 | 1017.1 |
| 20260905223304 | 68 | 134 | 1.0 | 4.0 | 0.00 | 0.00 | 0.00 | 62 | 1017.3 |
| 20260905222759 | 70 | 128 | 4.0 | 7.0 | 0.00 | 0.00 | 0.00 | 59 | 1017.2 |
| 20260905222258 | 70 | 10 | 2.0 | 4.0 | 0.00 | 0.00 | 0.00 | 58 | 1017.0 |
| 20260905221754 | 70 | 94 | 0.0 | 3.0 | 0.00 | 0.00 | 0.00 | 58 | 1017.1 |
| 20260905221250 | 70 | 206 | 1.0 | 2.0 | 0.00 | 0.00 | 0.00 | 58 | 1017.2 |
| 20260905220746 | 71 | 126 | 3.0 | 3.0 | 0.00 | 0.00 | 0.00 | 57 | 1017.1 |
| 20260905220242 | 70 | 88 | 0.0 | 4.0 | 0.00 | 0.00 | 0.00 | 58 | 1017.1 |
| 20260905215741 | 70 | 174 | 2.0 | 5.0 | 0.00 | 0.00 | 0.00 | 58 | 1017.3 |
| 20260905215238 | 70 | 138 | 3.0 | 5.0 | 0.00 | 0.00 | 0.00 | 59 | 1017.2 |
| 20260905214733 | 70 | 99 | 2.0 | 4.0 | 0.00 | 0.00 | 0.00 | 60 | 1017.2 |
| 20260905214229 | 71 | 221 | 1.0 | 2.0 | 0.00 | 0.00 | 0.00 | 58 | 1017.3 |
| 20260905213724 | 70 | 114 | 2.0 | 4.0 | 0.00 | 0.00 | 0.00 | 59 | 1017.3 |
| 20260905213220 | 70 | 339 | 2.0 | 4.0 | 0.00 | 0.00 | 0.00 | 60 | 1017.5 |
| 20260905212714 | 70 | 17 | 3.0 | 3.0 | 0.00 | 0.00 | 0.00 | 58 | 1017.3 |
| 20260905212214 | 70 | 192 | 2.0 | 4.0 | 0.00 | 0.00 | 0.00 | 59 | 1017.5 |
| 20260905211708 | 70 | 142 | 0.0 | 4.0 | 0.00 | 0.00 | 0.00 | 58 | 1017.4 |
| 20260905211204 | 69 | 65 | 1.0 | 4.0 | 0.00 | 0.00 | 0.00 | 60 | 1017.5 |
| 20260905210700 | 70 | 111 | 3.0 | 3.0 | 0.00 | 0.00 | 0.00 | 59 | 1017.5 |
| 20260905210200 | 70 | 96 | 2.0 | 4.0 | 0.00 | 0.00 | 0.00 | 58 | 1017.4 |
| 20260905205659 | 69 | 122 | 1.0 | 6.0 | 0.00 | 0.00 | 0.00 | 60 | 1017.5 |
| 20260905205158 | 70 | 126 | 0.0 | 3.0 | 0.00 | 0.00 | 0.00 | 58 | 1017.6 |
| 20260905204653 | 70 | 290 | 2.0 | 3.0 | 0.00 | 0.00 | 0.00 | 58 | 1017.4 |
| 20260905204148 | 70 | 24 | 2.0 | 5.0 | 0.00 | 0.00 | 0.00 | 61 | 1017.6 |
| 20260905203643 | 69 | 122 | 2.0 | 5.0 | 0.00 | 0.00 | 0.00 | 61 | 1017.7 |
| 20260905203138 | 70 | 137 | 2.0 | 5.0 | 0.00 | 0.00 | 0.00 | 60 | 1017.5 |
| 20260905202634 | 70 | 184 | 4.0 | 5.0 | 0.00 | 0.00 | 0.00 | 59 | 1017.7 |
| 20260905202129 | 70 | 179 | 2.0 | 3.0 | 0.00 | 0.00 | 0.00 | 59 | 1017.7 |
| 20260905201624 | 70 | 227 | 1.0 | 3.0 | 0.00 | 0.00 | 0.00 | 60 | 1017.5 |
| 20260905201124 | 70 | 152 | 2.0 | 4.0 | 0.00 | 0.00 | 0.00 | 58 | 1017.4 |
| 20260905200620 | 70 | 142 | 0.0 | 3.0 | 0.00 | 0.00 | 0.00 | 61 | 1017.4 |
| 20260905200114 | 69 | 278 | 0.0 | 2.0 | 0.00 | 0.00 | 0.00 | 59 | 1017.6 |
| 20260905195613 | 70 | 180 | 4.0 | 4.0 | 0.00 | 0.00 | 0.00 | 60 | 1017.6 |
| 20260905195108 | 68 | 105 | 0.0 | 2.0 | 0.00 | 0.00 | 0.00 | 61 | 1017.7 |
| 20260905194608 | 68 | 12 | 2.0 | 2.0 | 0.00 | 0.00 | 0.00 | 61 | 1017.5 |
| 20260905194108 | 68 | 78 | 1.0 | 2.0 | 0.00 | 0.00 | 0.00 | 63 | 1017.5 |
| 20260905193602 | 68 | 337 | 4.0 | 5.0 | 0.00 | 0.00 | 0.00 | 59 | 1017.6 |
| 20260905193057 | 69 | 34 | 2.0 | 3.0 | 0.00 | 0.00 | 0.00 | 60 | 1017.7 |
| 20260905192553 | 69 | 58 | 0.0 | 4.0 | 0.00 | 0.00 | 0.00 | 63 | 1017.7 |
| 20260905192049 | 68 | 152 | 2.0 | 5.0 | 0.00 | 0.00 | 0.00 | 64 | 1017.6 |
| 20260905191548 | 67 | 136 | 2.0 | 5.0 | 0.00 | 0.00 | 0.00 | 65 | 1017.6 |
| 20260905191047 | 67 | 112 | 4.0 | 4.0 | 0.00 | 0.00 | 0.00 | 65 | 1017.8 |
| 20260905190545 | 66 | 166 | 3.0 | 6.0 | 0.00 | 0.00 | 0.00 | 67 | 1017.7 |
| 20260905190039 | 65 | 192 | 3.0 | 5.0 | 0.00 | 0.00 | 0.00 | 69 | 1017.9 |
| 20260905185538 | 64 | 138 | 2.0 | 4.0 | 0.00 | 0.00 | 0.00 | 69 | 1017.9 |
| 20260905185032 | 65 | 213 | 0.0 | 4.0 | 0.00 | 0.00 | 0.00 | 69 | 1018.0 |
| 20260905184527 | 67 | 165 | 3.0 | 4.0 | 0.00 | 0.00 | 0.00 | 65 | 1018.0 |
| 20260905184026 | 67 | 138 | 2.0 | 4.0 | 0.00 | 0.00 | 0.00 | 65 | 1018.0 |
| 20260905183525 | 66 | 310 | 0.0 | 3.0 | 0.00 | 0.00 | 0.00 | 68 | 1018.0 |
| 20260905183021 | 66 | 187 | 4.0 | 6.0 | 0.00 | 0.00 | 0.00 | 67 | 1018.0 |
| 20260905182515 | 65 | 169 | 2.0 | 6.0 | 0.00 | 0.00 | 0.00 | 70 | 1018.1 |
| 20260905182009 | 66 | 137 | 3.0 | 5.0 | 0.00 | 0.00 | 0.00 | 68 | 1018.0 |
| 20260905181504 | 66 | 126 | 4.0 | 6.0 | 0.00 | 0.00 | 0.00 | 68 | 1018.0 |
| 20260905181003 | 66 | 99 | 3.0 | 3.0 | 0.00 | 0.00 | 0.00 | 68 | 1018.1 |
| 20260905180458 | 66 | 208 | 2.0 | 4.0 | 0.00 | 0.00 | 0.00 | 70 | 1018.0 |
| 20260905175954 | 65 | 94 | 2.0 | 7.0 | 0.00 | 0.00 | 0.00 | 70 | 1018.4 |
| 20260905175453 | 64 | 89 | 0.0 | 2.0 | 0.00 | 0.00 | 0.00 | 70 | 1018.2 |
| 20260905174949 | 64 | 120 | 3.0 | 4.0 | 0.00 | 0.00 | 0.00 | 71 | 1018.2 |
| 20260905174443 | 64 | 145 | 2.0 | 3.0 | 0.00 | 0.00 | 0.00 | 72 | 1018.1 |
| 20260905173939 | 64 | 117 | 3.0 | 3.0 | 0.00 | 0.00 | 0.00 | 73 | 1018.1 |
| 20260905173436 | 63 | 131 | 2.0 | 4.0 | 0.00 | 0.00 | 0.00 | 72 | 1018.0 |
| 20260905172931 | 63 | 149 | 4.0 | 5.0 | 0.00 | 0.00 | 0.00 | 72 | 1017.9 |
| 20260905172429 | 64 | 166 | 5.0 | 5.0 | 0.00 | 0.00 | 0.00 | 71 | 1018.0 |
| 20260905171925 | 66 | 173 | 2.0 | 3.0 | 0.00 | 0.00 | 0.00 | 69 | 1017.9 |
| 20260905171421 | 64 | 151 | 2.0 | 3.0 | 0.00 | 0.00 | 0.00 | 70 | 1018.1 |
| 20260905170917 | 63 | 162 | 2.0 | 4.0 | 0.00 | 0.00 | 0.00 | 72 | 1018.1 |
| 20260905170413 | 63 | 120 | 4.0 | 5.0 | 0.00 | 0.00 | 0.00 | 74 | 1018.0 |
| 20260905165912 | 62 | 107 | 2.0 | 5.0 | 0.00 | 0.00 | 0.00 | 74 | 1017.9 |
| 20260905165408 | 63 | 170 | 3.0 | 4.0 | 0.00 | 0.00 | 0.00 | 73 | 1018.0 |
| 20260905164902 | 63 | 120 | 2.0 | 2.0 | 0.00 | 0.00 | 0.00 | 72 | 1017.8 |
| 20260905164357 | 61 | 89 | 1.0 | 2.0 | 0.00 | 0.00 | 0.00 | 76 | 1017.8 |
| 20260905163852 | 60 | 86 | 1.0 | 3.0 | 0.00 | 0.00 | 0.00 | 79 | 1017.7 |
| 20260905163349 | 59 | 118 | 2.0 | 3.0 | 0.00 | 0.00 | 0.00 | 81 | 1017.7 |
| 20260905162844 | 57 | 79 | 0.0 | 2.0 | 0.00 | 0.00 | 0.00 | 83 | 1017.6 |
| 20260905162338 | 57 | 105 | 1.0 | 2.0 | 0.00 | 0.00 | 0.00 | 85 | 1017.5 |
| 20260905161833 | 56 | 98 | 2.0 | 2.0 | 0.00 | 0.00 | 0.00 | 84 | 1017.6 |
| 20260905161332 | 56 | 113 | 2.0 | 2.0 | 0.00 | 0.00 | 0.00 | 83 | 1017.5 |
| 20260905160831 | 56 | 125 | 2.0 | 2.0 | 0.00 | 0.00 | 0.00 | 86 | 1017.6 |
| 20260905160325 | 56 | 60 | 1.0 | 2.0 | 0.00 | 0.00 | 0.00 | 86 | 1017.8 |
| 20260905155820 | 56 | 35 | 2.0 | 3.0 | 0.00 | 0.00 | 0.00 | 86 | 1017.7 |
| 20260905155319 | 56 | 40 | 2.0 | 3.0 | 0.00 | 0.00 | 0.00 | 86 | 1017.8 |
| 20260905154819 | 56 | 339 | 2.0 | 4.0 | 0.00 | 0.00 | 0.00 | 85 | 1017.8 |
| 20260905154315 | 56 | 35 | 2.0 | 3.0 | 0.00 | 0.00 | 0.00 | 84 | 1017.7 |
| 20260905153810 | 56 | 44 | 2.0 | 3.0 | 0.00 | 0.00 | 0.00 | 83 | 1017.8 |
| 20260905153307 | 56 | 18 | 2.0 | 4.0 | 0.00 | 0.00 | 0.00 | 83 | 1017.8 |
| 20260905152805 | 56 | 30 | 2.0 | 3.0 | 0.00 | 0.00 | 0.00 | 83 | 1017.7 |
| 20260905152306 | 55 | 16 | 4.0 | 4.0 | 0.00 | 0.00 | 0.00 | 83 | 1017.9 |
| 20260905151800 | 54 | 32 | 2.0 | 3.0 | 0.00 | 0.00 | 0.00 | 84 | 1017.8 |
| 20260905151256 | 54 | 56 | 2.0 | 3.0 | 0.00 | 0.00 | 0.00 | 85 | 1017.7 |
| 20260905150756 | 53 | 70 | 2.0 | 3.0 | 0.00 | 0.00 | 0.00 | 87 | 1017.5 |
| 20260905150255 | 53 | 37 | 0.0 | 2.0 | 0.00 | 0.00 | 0.00 | 87 | 1017.8 |
| 20260905145753 | 53 | 25 | 1.0 | 2.0 | 0.00 | 0.00 | 0.00 | 88 | 1017.9 |
| 20260905145248 | 53 | 60 | 1.0 | 2.0 | 0.00 | 0.00 | 0.00 | 87 | 1017.7 |
| 20260905144746 | 53 | 56 | 1.0 | 2.0 | 0.00 | 0.00 | 0.00 | 85 | 1017.6 |
| 20260905144242 | 53 | 107 | 1.0 | 3.0 | 0.00 | 0.00 | 0.00 | 85 | 1017.5 |
| 20260905143736 | 53 | 113 | 3.0 | 5.0 | 0.00 | 0.00 | 0.00 | 82 | 1017.5 |
| 20260905143235 | 53 | 92 | 2.0 | 4.0 | 0.00 | 0.00 | 0.00 | 82 | 1017.4 |
| 20260905142733 | 53 | 124 | 1.0 | 4.0 | 0.00 | 0.00 | 0.00 | 83 | 1017.4 |
| 20260905142228 | 53 | 111 | 2.0 | 4.0 | 0.00 | 0.00 | 0.00 | 85 | 1017.3 |
| 20260905141723 | 54 | 107 | 1.0 | 4.0 | 0.00 | 0.00 | 0.00 | 85 | 1017.3 |
| 20260905141219 | 55 | 88 | 1.0 | 2.0 | 0.00 | 0.00 | 0.00 | 84 | 1017.2 |
| 20260905140715 | 54 | 29 | 1.0 | 2.0 | 0.00 | 0.00 | 0.00 | 84 | 1017.1 |
| 20260905140209 | 54 | 129 | 0.0 | 1.0 | 0.00 | 0.00 | 0.00 | 85 | 1017.2 |
| 20260905135704 | 54 | 62 | 0.0 | 1.0 | 0.00 | 0.00 | 0.00 | 84 | 1017.2 |
| 20260905135200 | 54 | 148 | 0.0 | 3.0 | 0.00 | 0.00 | 0.00 | 83 | 1017.3 |
| 20260905134659 | 54 | 112 | 1.0 | 2.0 | 0.00 | 0.00 | 0.00 | 84 | 1017.4 |
| 20260905134158 | 54 | 120 | 2.0 | 4.0 | 0.00 | 0.00 | 0.00 | 84 | 1017.2 |
| 20260905133653 | 54 | 141 | 4.0 | 4.0 | 0.00 | 0.00 | 0.00 | 85 | 1017.2 |
| 20260905133148 | 54 | 110 | 3.0 | 3.0 | 0.00 | 0.00 | 0.00 | 85 | 1017.1 |
| 20260905132647 | 54 | 114 | 1.0 | 3.0 | 0.00 | 0.00 | 0.00 | 85 | 1017.3 |
| 20260905132142 | 54 | 126 | 5.0 | 6.0 | 0.00 | 0.00 | 0.00 | 86 | 1017.4 |
| 20260905131637 | 54 | 121 | 2.0 | 2.0 | 0.00 | 0.00 | 0.00 | 86 | 1017.1 |
| 20260905131132 | 54 | 132 | 0.0 | 2.0 | 0.00 | 0.00 | 0.00 | 86 | 1017.3 |
| 20260905130627 | 53 | 94 | 1.0 | 3.0 | 0.00 | 0.00 | 0.00 | 87 | 1017.1 |
| 20260905130126 | 53 | 88 | 2.0 | 3.0 | 0.00 | 0.00 | 0.00 | 87 | 1017.2 |
| 20260905125621 | 53 | 111 | 2.0 | 3.0 | 0.00 | 0.00 | 0.00 | 88 | 1017.1 |
| 20260905125116 | 52 | 59 | 1.0 | 3.0 | 0.00 | 0.00 | 0.00 | 89 | 1017.0 |
| 20260905124613 | 52 | 42 | 3.0 | 3.0 | 0.00 | 0.00 | 0.00 | 89 | 1017.1 |
| 20260905124108 | 52 | 52 | 0.0 | 3.0 | 0.00 | 0.00 | 0.00 | 88 | 1017.0 |
| 20260905123604 | 52 | 62 | 2.0 | 3.0 | 0.00 | 0.00 | 0.00 | 89 | 1016.9 |
| 20260905123101 | 52 | 82 | 2.0 | 2.0 | 0.00 | 0.00 | 0.00 | 88 | 1016.9 |
| 20260905122600 | 53 | 59 | 0.0 | 2.0 | 0.00 | 0.00 | 0.00 | 85 | 1016.9 |
| 20260905122055 | 54 | 50 | 2.0 | 2.0 | 0.00 | 0.00 | 0.00 | 83 | 1016.8 |
| 20260905121549 | 54 | 57 | 2.0 | 3.0 | 0.00 | 0.00 | 0.00 | 84 | 1017.1 |
| 20260905121045 | 54 | 93 | 1.0 | 3.0 | 0.00 | 0.00 | 0.00 | 83 | 1017.0 |
| 20260905120544 | 54 | 94 | 2.0 | 3.0 | 0.00 | 0.00 | 0.00 | 82 | 1016.9 |
| 20260905120040 | 54 | 91 | 2.0 | 3.0 | 0.00 | 0.00 | 0.00 | 83 | 1016.9 |
| 20260905115538 | 54 | 98 | 1.0 | 2.0 | 0.00 | 0.00 | 0.00 | 83 | 1016.9 |
| 20260905115033 | 54 | 1 | 0.0 | 2.0 | 0.00 | 0.00 | 0.00 | 84 | 1016.9 |
| 20260905114533 | 53 | 7 | 2.0 | 2.0 | 0.00 | 0.00 | 0.00 | 85 | 1017.0 |
| 20260905114032 | 54 | 16 | 1.0 | 2.0 | 0.00 | 0.00 | 0.00 | 84 | 1017.0 |
| 20260905113527 | 54 | 41 | 1.0 | 2.0 | 0.00 | 0.00 | 0.00 | 83 | 1016.8 |
| 20260905113022 | 54 | 55 | 0.0 | 2.0 | 0.00 | 0.00 | 0.00 | 83 | 1017.0 |
| 20260905112517 | 55 | 104 | 2.0 | 2.0 | 0.00 | 0.00 | 0.00 | 82 | 1016.9 |
| 20260905112013 | 55 | 59 | 0.0 | 2.0 | 0.00 | 0.00 | 0.00 | 82 | 1016.8 |
| 20260905111507 | 55 | 134 | 0.0 | 2.0 | 0.00 | 0.00 | 0.00 | 81 | 1016.7 |
| 20260905111001 | 56 | 50 | 0.0 | 2.0 | 0.00 | 0.00 | 0.00 | 81 | 1016.9 |
| 20260905110500 | 55 | 10 | 0.0 | 2.0 | 0.00 | 0.00 | 0.00 | 81 | 1016.8 |
| 20260905105954 | 55 | 357 | 1.0 | 2.0 | 0.00 | 0.00 | 0.00 | 82 | 1016.9 |
| 20260905105449 | 55 | 157 | 0.0 | 1.0 | 0.00 | 0.00 | 0.00 | 82 | 1016.8 |
| 20260905104948 | 55 | 110 | 0.0 | 1.0 | 0.00 | 0.00 | 0.00 | 82 | 1016.9 |
| 20260905104444 | 55 | 157 | 0.0 | 0.0 | 0.00 | 0.00 | 0.00 | 82 | 1016.8 |
| 20260905103939 | 55 | 135 | 0.0 | 1.0 | 0.00 | 0.00 | 0.00 | 82 | 1016.9 |
| 20260905103435 | 55 | 38 | 2.0 | 2.0 | 0.00 | 0.00 | 0.00 | 82 | 1016.8 |
| 20260905102931 | 55 | 335 | 0.0 | 2.0 | 0.00 | 0.00 | 0.00 | 82 | 1016.8 |
| 20260905102427 | 55 | 356 | 2.0 | 2.0 | 0.00 | 0.00 | 0.00 | 82 | 1017.0 |
| 20260905101922 | 55 | 35 | 1.0 | 2.0 | 0.00 | 0.00 | 0.00 | 83 | 1016.9 |
| 20260905101420 | 55 | 14 | 2.0 | 3.0 | 0.00 | 0.00 | 0.00 | 82 | 1016.9 |
| 20260905100915 | 54 | 18 | 2.0 | 3.0 | 0.00 | 0.00 | 0.00 | 83 | 1016.7 |
| 20260905100411 | 54 | 43 | 2.0 | 3.0 | 0.00 | 0.00 | 0.00 | 84 | 1016.9 |
| 20260905095910 | 54 | 8 | 2.0 | 2.0 | 0.00 | 0.00 | 0.00 | 84 | 1016.8 |
| 20260905095404 | 54 | 15 | 2.0 | 2.0 | 0.00 | 0.00 | 0.00 | 84 | 1016.7 |
| 20260905094859 | 53 | 57 | 0.0 | 2.0 | 0.00 | 0.00 | 0.00 | 86 | 1016.7 |
| 20260905094354 | 54 | 95 | 1.0 | 2.0 | 0.00 | 0.00 | 0.00 | 85 | 1016.8 |
| 20260905093853 | 54 | 121 | 1.0 | 2.0 | 0.00 | 0.00 | 0.00 | 84 | 1017.0 |
| 20260905093349 | 55 | 58 | 0.0 | 2.0 | 0.00 | 0.00 | 0.00 | 84 | 1016.9 |
| 20260905092844 | 55 | 49 | 0.0 | 1.0 | 0.00 | 0.00 | 0.00 | 84 | 1017.0 |
| 20260905092339 | 54 | 53 | 1.0 | 2.0 | 0.00 | 0.00 | 0.00 | 85 | 1016.8 |
| 20260905091834 | 54 | 349 | 2.0 | 2.0 | 0.00 | 0.00 | 0.00 | 85 | 1016.9 |
| 20260905091333 | 53 | 325 | 0.0 | 2.0 | 0.00 | 0.00 | 0.00 | 86 | 1016.9 |
| 20260905090832 | 53 | 15 | 1.0 | 2.0 | 0.00 | 0.00 | 0.00 | 88 | 1016.7 |
| 20260905090329 | 53 | 97 | 2.0 | 2.0 | 0.00 | 0.00 | 0.00 | 88 | 1016.8 |
| 20260905085828 | 53 | 89 | 0.0 | 2.0 | 0.00 | 0.00 | 0.00 | 87 | 1016.8 |
| 20260905085322 | 53 | 57 | 2.0 | 2.0 | 0.00 | 0.00 | 0.00 | 88 | 1016.8 |
| 20260905084818 | 53 | 56 | 2.0 | 2.0 | 0.00 | 0.00 | 0.00 | 88 | 1016.5 |
| 20260905084317 | 53 | 32 | 2.0 | 2.0 | 0.00 | 0.00 | 0.00 | 87 | 1016.8 |
| 20260905083812 | 54 | 89 | 0.0 | 1.0 | 0.00 | 0.00 | 0.00 | 85 | 1016.7 |
| 20260905083308 | 55 | 36 | 3.0 | 3.0 | 0.00 | 0.00 | 0.00 | 83 | 1016.5 |
| 20260905082803 | 55 | 104 | 1.0 | 2.0 | 0.00 | 0.00 | 0.00 | 84 | 1016.7 |
| 20260905082259 | 55 | 339 | 0.0 | 1.0 | 0.00 | 0.00 | 0.00 | 83 | 1016.7 |
| 20260905081754 | 55 | 32 | 0.0 | 2.0 | 0.00 | 0.00 | 0.00 | 83 | 1016.8 |
| 20260905081249 | 55 | 44 | 0.0 | 2.0 | 0.00 | 0.00 | 0.00 | 83 | 1016.9 |
| 20260905080748 | 55 | 10 | 0.0 | 2.0 | 0.00 | 0.00 | 0.00 | 84 | 1016.7 |
| 20260905080243 | 54 | 50 | 0.0 | 1.0 | 0.00 | 0.00 | 0.00 | 85 | 1016.6 |
| 20260905075741 | 54 | 152 | 0.0 | 2.0 | 0.00 | 0.00 | 0.00 | 86 | 1016.7 |
| 20260905075241 | 54 | 141 | 0.0 | 2.0 | 0.00 | 0.00 | 0.00 | 86 | 1016.7 |
| 20260905074740 | 54 | 103 | 0.0 | 2.0 | 0.00 | 0.00 | 0.00 | 86 | 1017.0 |
| 20260905074236 | 54 | 109 | 1.0 | 2.0 | 0.00 | 0.00 | 0.00 | 87 | 1016.6 |
| 20260905073731 | 53 | 125 | 0.0 | 2.0 | 0.00 | 0.00 | 0.00 | 86 | 1016.5 |
| 20260905073226 | 54 | 89 | 0.0 | 1.0 | 0.00 | 0.00 | 0.00 | 85 | 1016.7 |
| 20260905072720 | 54 | 95 | 0.0 | 1.0 | 0.00 | 0.00 | 0.00 | 85 | 1016.7 |
| 20260905072216 | 54 | 48 | 0.0 | 2.0 | 0.00 | 0.00 | 0.00 | 84 | 1016.5 |
| 20260905071712 | 54 | 75 | 2.0 | 2.0 | 0.00 | 0.00 | 0.00 | 83 | 1016.5 |
| 20260905071208 | 55 | 113 | 0.0 | 1.0 | 0.00 | 0.00 | 0.00 | 82 | 1016.5 |
| 20260905070703 | 55 | 93 | 2.0 | 2.0 | 0.00 | 0.00 | 0.00 | 83 | 1016.7 |
| 20260905070159 | 55 | 36 | 2.0 | 2.0 | 0.00 | 0.00 | 0.00 | 83 | 1016.4 |
| 20260905065657 | 55 | 41 | 2.0 | 2.0 | 0.00 | 0.02 | 0.02 | 83 | 1016.5 |
| 20260905065151 | 55 | 26 | 2.0 | 2.0 | 0.00 | 0.02 | 0.02 | 83 | 1016.4 |
| 20260905064646 | 55 | 44 | 2.0 | 2.0 | 0.00 | 0.02 | 0.02 | 83 | 1016.5 |
| 20260905064137 | 55 | 49 | 2.0 | 2.0 | 0.00 | 0.02 | 0.02 | 82 | 1016.3 |
| 20260905063635 | 55 | 33 | 2.0 | 2.0 | 0.00 | 0.02 | 0.02 | 82 | 1016.3 |
| 20260905063132 | 55 | 54 | 2.0 | 2.0 | 0.00 | 0.02 | 0.02 | 81 | 1016.4 |
| 20260905062627 | 56 | 47 | 2.0 | 2.0 | 0.00 | 0.02 | 0.02 | 81 | 1016.3 |
| 20260905062126 | 55 | 47 | 1.0 | 2.0 | 0.00 | 0.02 | 0.02 | 81 | 1016.4 |
| 20260905061620 | 55 | 70 | 1.0 | 2.0 | 0.00 | 0.02 | 0.02 | 81 | 1016.4 |
| 20260905061115 | 55 | 58 | 2.0 | 2.0 | 0.00 | 0.02 | 0.02 | 81 | 1016.3 |
| 20260905060610 | 55 | 49 | 1.0 | 2.0 | 0.00 | 0.02 | 0.02 | 81 | 1016.3 |
| 20260905060106 | 55 | 66 | 0.0 | 1.0 | 0.00 | 0.02 | 0.02 | 82 | 1016.4 |
| 20260905055605 | 55 | 66 | 1.0 | 2.0 | 0.00 | 0.02 | 0.02 | 82 | 1016.3 |
| 20260905055059 | 55 | 47 | 2.0 | 3.0 | 0.00 | 0.02 | 0.02 | 82 | 1016.3 |
| 20260905054556 | 55 | 28 | 2.0 | 2.0 | 0.00 | 0.02 | 0.02 | 81 | 1016.4 |
| 20260905054050 | 56 | 26 | 2.0 | 3.0 | 0.00 | 0.02 | 0.02 | 80 | 1016.3 |
| 20260905053544 | 55 | 56 | 2.0 | 3.0 | 0.00 | 0.02 | 0.02 | 80 | 1016.3 |
| 20260905053040 | 56 | 100 | 2.0 | 3.0 | 0.00 | 0.02 | 0.02 | 80 | 1016.3 |
| 20260905052539 | 56 | 73 | 2.0 | 2.0 | 0.00 | 0.02 | 0.02 | 79 | 1016.4 |
| 20260905052034 | 55 | 49 | 3.0 | 3.0 | 0.00 | 0.02 | 0.02 | 80 | 1016.3 |
| 20260905051530 | 55 | 62 | 2.0 | 2.0 | 0.00 | 0.02 | 0.02 | 81 | 1016.3 |
| 20260905051026 | 55 | 45 | 1.0 | 2.0 | 0.00 | 0.02 | 0.02 | 81 | 1016.5 |
| 20260905050521 | 55 | 93 | 1.0 | 2.0 | 0.00 | 0.02 | 0.02 | 83 | 1016.3 |
| 20260905050013 | 55 | 115 | 3.0 | 3.0 | 0.00 | 0.02 | 0.02 | 83 | 1016.5 |
| 20260905045508 | 55 | 125 | 1.0 | 1.0 | 0.00 | 0.02 | 0.02 | 79 | 1016.4 |
| 20260905045003 | 56 | 130 | 2.0 | 2.0 | 0.00 | 0.02 | 0.02 | 78 | 1016.6 |
| 20260905044503 | 55 | 105 | 3.0 | 3.0 | 0.00 | 0.02 | 0.02 | 77 | 1016.5 |
| 20260905043957 | 55 | 105 | 2.0 | 2.0 | 0.00 | 0.02 | 0.02 | 76 | 1016.6 |
| 20260905043456 | 55 | 70 | 1.0 | 2.0 | 0.00 | 0.02 | 0.02 | 76 | 1016.4 |
| 20260905042951 | 55 | 93 | 1.0 | 2.0 | 0.00 | 0.02 | 0.02 | 77 | 1016.4 |
| 20260905042450 | 55 | 59 | 2.0 | 2.0 | 0.00 | 0.02 | 0.02 | 78 | 1016.4 |
| 20260905041945 | 55 | 13 | 1.0 | 2.0 | 0.00 | 0.02 | 0.02 | 78 | 1016.3 |
| 20260905041441 | 55 | 35 | 2.0 | 2.0 | 0.00 | 0.02 | 0.02 | 78 | 1016.5 |
| 20260905040936 | 55 | 39 | 2.0 | 2.0 | 0.00 | 0.02 | 0.02 | 79 | 1016.3 |
| 20260905040430 | 55 | 45 | 2.0 | 3.0 | 0.00 | 0.02 | 0.02 | 78 | 1016.3 |
| 20260905035930 | 55 | 40 | 2.0 | 2.0 | 0.00 | 0.02 | 0.02 | 78 | 1016.3 |
| 20260905035425 | 55 | 38 | 2.0 | 2.0 | 0.00 | 0.02 | 0.02 | 78 | 1016.5 |
| 20260905034922 | 55 | 34 | 2.0 | 3.0 | 0.00 | 0.02 | 0.02 | 78 | 1016.3 |
| 20260905034417 | 56 | 24 | 2.0 | 3.0 | 0.00 | 0.02 | 0.02 | 76 | 1016.2 |
| 20260905033916 | 56 | 24 | 2.0 | 3.0 | 0.00 | 0.02 | 0.02 | 75 | 1016.0 |
| 20260905033411 | 56 | 26 | 2.0 | 2.0 | 0.00 | 0.02 | 0.02 | 76 | 1016.2 |
| 20260905032911 | 57 | 43 | 2.0 | 2.0 | 0.00 | 0.02 | 0.02 | 75 | 1016.3 |
| 20260905032406 | 57 | 26 | 2.0 | 2.0 | 0.00 | 0.02 | 0.02 | 75 | 1016.0 |
| 20260905031901 | 57 | 25 | 2.0 | 2.0 | 0.00 | 0.02 | 0.02 | 75 | 1016.0 |
| 20260905031356 | 57 | 13 | 2.0 | 2.0 | 0.00 | 0.02 | 0.02 | 74 | 1016.2 |
| 20260905030851 | 57 | 23 | 2.0 | 2.0 | 0.00 | 0.02 | 0.02 | 75 | 1016.0 |
| 20260905030347 | 57 | 29 | 1.0 | 2.0 | 0.00 | 0.02 | 0.02 | 75 | 1016.3 |
| 20260905025846 | 57 | 347 | 1.0 | 2.0 | 0.00 | 0.02 | 0.02 | 71 | 1016.1 |
| 20260905025341 | 58 | 51 | 2.0 | 2.0 | 0.00 | 0.02 | 0.02 | 68 | 1016.1 |
| 20260905024838 | 58 | 102 | 1.0 | 2.0 | 0.00 | 0.02 | 0.02 | 68 | 1016.1 |
| 20260905024333 | 58 | 113 | 2.0 | 2.0 | 0.00 | 0.02 | 0.02 | 69 | 1015.8 |
| 20260905023823 | 59 | 101 | 2.0 | 2.0 | 0.00 | 0.02 | 0.02 | 70 | 1015.8 |
| 20260905023319 | 59 | 108 | 1.0 | 2.0 | 0.00 | 0.02 | 0.02 | 70 | 1016.0 |
| 20260905022817 | 59 | 108 | 1.0 | 2.0 | 0.00 | 0.02 | 0.02 | 66 | 1016.0 |
| 20260905022312 | 60 | 105 | 2.0 | 2.0 | 0.00 | 0.02 | 0.02 | 67 | 1016.0 |
| 20260905021807 | 60 | 99 | 2.0 | 2.0 | 0.00 | 0.02 | 0.02 | 67 | 1016.1 |
| 20260905021302 | 60 | 84 | 0.0 | 1.0 | 0.00 | 0.02 | 0.02 | 67 | 1016.1 |
| 20260905020801 | 60 | 133 | 0.0 | 1.0 | 0.00 | 0.02 | 0.02 | 69 | 1016.0 |
| 20260905020257 | 60 | 124 | 0.0 | 1.0 | 0.00 | 0.02 | 0.02 | 67 | 1016.0 |
| 20260905015750 | 61 | 224 | 0.0 | 0.0 | 0.00 | 0.02 | 0.02 | 67 | 1015.9 |
| 20260905015244 | 61 | 166 | 0.0 | 1.0 | 0.00 | 0.02 | 0.02 | 67 | 1016.0 |
| 20260905014743 | 61 | 116 | 0.0 | 1.0 | 0.00 | 0.02 | 0.02 | 65 | 1016.0 |
| 20260905014239 | 61 | 216 | 1.0 | 2.0 | 0.00 | 0.02 | 0.02 | 66 | 1015.8 |
| 20260905013734 | 61 | 166 | 0.0 | 1.0 | 0.00 | 0.02 | 0.02 | 65 | 1015.7 |
| 20260905013225 | 61 | 127 | 1.0 | 2.0 | 0.00 | 0.02 | 0.02 | 63 | 1015.8 |
| 20260905012720 | 62 | 65 | 1.0 | 2.0 | 0.00 | 0.02 | 0.02 | 63 | 1015.8 |
| 20260905012216 | 62 | 140 | 3.0 | 3.0 | 0.00 | 0.02 | 0.02 | 64 | 1015.5 |
| 20260905011712 | 63 | 189 | 1.0 | 2.0 | 0.00 | 0.02 | 0.02 | 62 | 1015.6 |
| 20260905011208 | 64 | 142 | 1.0 | 4.0 | 0.00 | 0.02 | 0.02 | 62 | 1015.4 |
| 20260905010707 | 65 | 129 | 2.0 | 3.0 | 0.00 | 0.02 | 0.02 | 57 | 1015.4 |
| 20260905010203 | 65 | 192 | 0.0 | 2.0 | 0.00 | 0.02 | 0.02 | 59 | 1015.4 |
| 20260905005659 | 65 | 168 | 3.0 | 4.0 | 0.00 | 0.02 | 0.02 | 61 | 1015.3 |